Orange, MA

12:44 PM EDT on March 23, 2017 (GMT -0400)
Orange Municipal

Weather History for KORE - February, 2014

Change the Weather History Date:

Monday, February 17, 2014

  Actual Average Record
Temperature  
Mean Temperature 12 °F -  
Max Temperature 25 °F 33 °F 52 °F (2011)
Min Temperature -2 °F 14 °F -6 °F (2004)
Degree Days  
Heating Degree Days 52    
Moisture  
Dew Point -6 °F    
Average Humidity 47    
Maximum Humidity 82    
Minimum Humidity 24    
Precipitation  
Precipitation 0.00 in - - ()
Sea Level Pressure  
Sea Level Pressure 30.26 in    
Wind  
Wind Speed 6 mph (NW)    
Max Wind Speed 18 mph    
Max Gust Speed 25 mph    
Visibility 10 miles    
Events      
Averages and records for this station are not official NWS values.
T = Trace of Precipitation, MM = Missing Value Source: NWS Daily Summary

Daily Weather History Graph

Daily Weather History Graph

Search for Another Location

Airport or City:

Trip Planner

Search our weather history database for the weather conditions in past years. The results will help you decide how hot, cold, wet, or windy it might be!

Date:

Astronomy

Feb. 17, 2014 Rise Set
Actual Time 6:43 AM EST 5:23 PM EST
Civil Twilight 6:14 AM EST 5:52 PM EST
Nautical Twilight 5:41 AM EST 6:25 PM EST
Astronomical Twilight 5:08 AM EST 6:58 PM EST
Moon 8:20 PM EST (2/17) 7:38 AM EST (2/17)
Length of Visible Light 11h 38m
Length of Day
10h 40m
Waning Gibbous, 93% of the Moon is Illuminated
Feb 17
Waning Gibbous
Feb 22
Last Quarter
Mar 1
New
Mar 8
First Quarter
Mar 16
Full

Hourly Weather History & Observations

Time (EST) Temp. Windchill Dew Point Humidity Pressure Visibility Wind Dir Wind Speed Gust Speed Precip Events Conditions
12:52 AM 15.1 °F 4.2 °F -0.9 °F 49% 30.04 in 10.0 mi NNW 8.1 mph - N/A   Partly Cloudy
1:52 AM 12.0 °F 1.5 °F -4.0 °F 49% 30.07 in 10.0 mi NW 6.9 mph - N/A   Clear
2:52 AM 9.0 °F 2.4 °F -5.1 °F 53% 30.08 in 10.0 mi NW 3.5 mph - N/A   Clear
3:52 AM 8.1 °F 1.4 °F -5.1 °F 55% 30.12 in 10.0 mi NNE 3.5 mph - N/A   Clear
4:52 AM 7.0 °F 0.1 °F -5.1 °F 58% 30.15 in 10.0 mi NW 3.5 mph - N/A   Clear
5:52 AM 6.1 °F -0.9 °F -7.1 °F 55% 30.18 in 10.0 mi NW 3.5 mph - N/A   Clear
6:52 AM 8.1 °F - -7.1 °F 50% 30.21 in 10.0 mi Calm Calm - N/A   Clear
7:52 AM 10.9 °F 2.9 °F -7.1 °F 44% 30.25 in 10.0 mi WNW 4.6 mph - N/A   Clear
8:52 AM 14.0 °F 2.9 °F -8.0 °F 37% 30.27 in 10.0 mi NW 8.1 mph - N/A   Clear
9:52 AM 17.1 °F 4.3 °F -8.0 °F 33% 30.28 in 10.0 mi NNW 11.5 mph 16.1 mph N/A   Clear
10:52 AM 19.9 °F 9.3 °F -7.1 °F 30% 30.30 in 10.0 mi NW 9.2 mph 19.6 mph N/A   Clear
11:52 AM 21.9 °F 11.0 °F -5.1 °F 30% 30.29 in 10.0 mi NW 10.4 mph 24.2 mph N/A   Clear
12:52 PM 24.1 °F 10.1 °F -5.1 °F 28% 30.30 in 10.0 mi NNW 18.4 mph 25.3 mph N/A   Clear
1:52 PM 25.0 °F 14.2 °F -6.0 °F 26% 30.30 in 10.0 mi NW 11.5 mph - N/A   Clear
2:52 PM 25.0 °F 12.6 °F -5.1 °F 27% 30.32 in 10.0 mi WNW 15.0 mph 20.7 mph N/A   Clear
3:52 PM 25.0 °F 16.3 °F -7.1 °F 24% 30.32 in 10.0 mi NW 8.1 mph - N/A   Clear
4:52 PM 23.0 °F 14.7 °F -7.1 °F 27% 30.34 in 10.0 mi WNW 6.9 mph - N/A   Clear
5:52 PM 18.0 °F 11.1 °F -6.0 °F 35% 30.36 in 10.0 mi NW 4.6 mph - N/A   Clear
6:52 PM 12.9 °F - -2.9 °F 49% 30.37 in 10.0 mi Calm Calm - N/A   Clear
7:52 PM 7.0 °F 0.1 °F -4.0 °F 61% 30.38 in 10.0 mi East 3.5 mph - N/A   Clear
8:52 PM 6.1 °F - -4.0 °F 63% 30.37 in 10.0 mi Calm Calm - N/A   Clear
9:52 PM -0.0 °F -7.9 °F -6.0 °F 76% 30.34 in 10.0 mi West 3.5 mph - N/A   Clear
10:52 PM -0.9 °F - -6.0 °F 79% 30.35 in 10.0 mi Calm Calm - N/A   Clear
11:52 PM -2.9 °F - -7.1 °F 82% 30.37 in 9.0 mi Calm Calm - N/A   Clear